CZ-2D DEB, 44607

Orbit data source: Space-Track

CZ-2D DEB, 44607 is space debris in SSO originally from a launch on Fri, 11 Nov 2016 UTC launched from the Jiuquan Satellite Launch Center, China (JSC). Debris objects in space refer to the collection of defunct objects orbiting the Earth. Examples of debris include non-operational satellites, rocket bodies, and fragments generated from explosions, collisions, or faulty payload assembly.

Loading next visibility...
Identifier
44607, 2016-068G
Orbit
SSO
Last TLE update
1 day ago
Origin
Manufacturer
Unknown
Mission
Spacecraft
Bus & Motor
Unknown
Mass
Unknown
Launch date (UTC)
2016-11-11 (9 years ago)
Launch vehicle
Unknown
Launch site
Jiuquan Satellite Launch Center, China (JSC)
Object type
Payload
Rocket body
Debris
Shape & HBR
Unknown
Radar Cross Section
Small (<0.1 m²)

Expand to show TLE details & history

TLE from 1 day ago
0 CZ-2D DEB
1 44607U 16068G   25181.37252926  .00000416  00000-0  27548-3 0  9995
2 44607  98.4738 336.5161 0205901  72.3199 290.0328 13.96353237431728
Epoch: 2025-06-30T08:56Z
TLE epoch observation values (Epoch: 2025-06-30T08:56:26.528Z)
Latitude
-0.00007°
Longitude
-76.2777°
Altitude
860.706 km
Speed
7.447 km/s
True Right ascension
22h 26m 03s
True Declination
0° 00' 00"
Sunlit
Object was in full shadow at epoch
Visualization orbit readout
Latitude
-37.33273°
Longitude
-68.80355°
Altitude
961.347 km
Speed
7.349 km/s
Apparent Right ascension
01h 44m 40s
Apparent Declination
-80° 40' 50"
Sunlit
Object is in full shadow
Visualization observer readout
Local Sidereal Time
22:11:52
Azimuth
171.004° S
Elevation
-33.973°
Doppler factor
1
Orbital elements
Apogee altitude
1,053.56 km
Perigee altitude
753.696 km
Semi-major axis
7,281.765 km
Eccentricity
0.02059
Inclination
98.4738°
RAAN
336.5161°
Arg. of periapsis
72.3199°
True anomaly
Unknown
Mean anomaly
290.0328°
Eccentric anomaly
Unknown
Mean motion
3.49292 °/min
Orbital period
103.07 mins
BSTAR
0.00027548
Loading maneuver chart data...
Loading SW <> Apogee altitude chart data...
Loading historical data...
Loading historical data...
Loading historical data...
Loading historical data...
Loading historical data...
Loading historical data...
Loading historical data...

CZ-2D DEB Visibility forecast

Observer location: undefined°, undefined°

Span
Click to sort rows by Start time (UTC) header in descending order
Start Az.
Max El. time (UTC)
Max El. Az.
Max El.
End time (UTC)
End Az.
9 mins2025-07-01 10:50:23.936Z189.496° SSW2025-07-01 10:55:23.936Z271.653° WNW34.535°2025-07-01 10:59:23.936Z331.11° NNW
9 mins2025-07-01 23:21:23.936Z10.157° NNE2025-07-01 23:25:23.936Z235.474° WSW44.332°2025-07-01 23:30:23.936Z198.468° SSW
6 mins2025-07-02 09:15:23.936Z103.302° ESE2025-07-02 09:17:23.936Z74.378° E20.752°2025-07-02 09:21:23.936Z17.942° NNE
|